Location: *
(41.0833°N, 73.4167°W)
Time: 21:37:03
(UTC+00:00)

ADEOS Rocket - Pass Details

Date: 22 October 2019
Orbit: 859 x 1306 km, 98.7° (Epoch: 16 November)

Event Time Altitude Azimuth Distance (km) Brightness Sun altitude
Rises 01:03:19 0° 11° (N) 4,283 6.4 -34.2°
Reaches altitude 10° 01:06:06 10° 9° (N) 3,284 5.8 -34.7°
Maximum altitude 01:13:38 68° 288° (WNW) 1,296 3.6 -36.0°
Enters shadow 01:14:47 60° 242° (WSW) 1,362 3.7 -36.2°
Exits shadow 01:18:33 21° 211° (SSW) 2,325 5.0 -36.9°
Drops below altitude 10° 01:20:32 10° 207° (SSW) 3,008 5.6 -37.3°
Sets 01:22:59 0° 205° (SSW) 3,903 6.2 -37.7°
